Regional Weather Roundup
Issued by NWS Cleveland, OH

Home | Current Version | Previous Version | Graphics & Text | Print | Product List | Glossary On
Versions: 1 2 3 4 5 6 7 8 9 10 11 12 13 14 15 16 17 18 19 20 21 22 23 24 25 26 27 28 29 30 31 32 33 34 35 36 37 38 39 40 41 42 43 44 45 46 47 48 49 50
000
ASUS41 KCLE 231812
RWRCLE
OHIO REGIONAL WEATHER ROUNDUP
NATIONAL WEATHER SERVICE WILMINGTON, OH
200 PM EDT SAT SEP 23 2017

NOTE: "FAIR" INDICATES FEW OR NO CLOUDS BELOW 12,000 FEET WITH NO
SIGNIFICANT WEATHER AND/OR OBSTRUCTIONS TO VISIBILITY.

OHZ001>008-015>018-024>027-034-035-043-044-231900-
   NORTHWEST OHIO

CITY           SKY/WX    TMP DP  RH WIND       PRES   REMARKS
DEFIANCE       FAIR      87  64  46 CALM      30.13F
FINDLAY        FAIR      90  61  37 CALM      30.13S HX  90
TOLEDO EXPRESS FAIR      89  66  46 CALM      30.13F HX  91
TOLEDO EXEC    FAIR      90  64  42 N8        30.15F HX  91
LIMA           FAIR      90  59  35 SE3       30.13F
$$

OHZ009>014-019>023-028>033-038-089-231900-
   NORTHEAST OHIO

CITY           SKY/WX    TMP DP  RH WIND       PRES   REMARKS
CLE-HOPKINS    FAIR      89  52  28 N10G18    30.17F
CLE-LAKEFRONT  FAIR      78  63  59 N6        30.15F
CUY CO. ARPT   SUNNY     86  55  35 N12       30.17F
LORAIN-ELYRIA  FAIR      85  57  38 N8        30.16F
ASHTABULA      FAIR      86  55  34 NW7       30.18S
AKRON-CANTON   FAIR      89  58  34 VRB6      30.16S
WOOSTER        FAIR      88  61  40 NE8       30.16F
MANSFIELD      FAIR      87  58  37 NE8       30.16F
YOUNGSTOWN     FAIR      87  54  32 NE10      30.16F
$$

OHZ042-051>053-060>062-070>072-077>081-231900-
  SOUTHWEST OHIO

CITY           SKY/WX    TMP DP  RH WIND       PRES   REMARKS
CINC-COVINGTON FAIR      87  65  47 NE10      30.12F
CINC-LUNKEN    FAIR      89  67  47 VRB5      30.10F HX  92
HAMILTON       FAIR      88  66  48 CALM      30.11F HX  90
DAYTON         FAIR      87  61  41 VRB5      30.13F
WRIGHT-PAT AFB FAIR      87  61  40 CALM      30.11F
DAYTON GENERAL FAIR      86  61  42 VRB3      30.12F
WILMINGTON     FAIR      86  64  47 VRB7      30.12F
$$

OHZ036-037-039>041-045>050-054>059-063>069-073>076-082>088-231900-
  CENTRAL AND SOUTHEAST OHIO

CITY           SKY/WX    TMP DP  RH WIND       PRES   REMARKS
COLUMBUS       FAIR      89  58  34 NE9       30.11F
OSU AIRPORT    FAIR      87  59  38 NE8       30.12F
BOLTON FIELD   SUNNY     88  61  40 E3        30.13F
RICKENBACK AFB FAIR      87  59  38 E9        30.11F
NEWARK         FAIR      88  55  32 VRB7      30.12F
MARION         FAIR      91  52  26 NE5       30.13F
LANCASTER      FAIR      87  60  40 E10       30.12F
ZANESVILLE     FAIR      89  50  26 NE6       30.12F
NEW PHILLY     FAIR      92  53  26 N8        30.14F
$$




USA.gov is the U.S. government's official web portal to all federal, state and local government web resources and services.